Weather History for West Palm Beach, FL

Change the Weather History Date:

Saturday, October 29, 2011

  Actual Average Record
Temperature  
Mean Temperature 79 °F 76 °F  
Max Temperature 85 °F 83 °F 89 °F (1980)
Min Temperature 72 °F 69 °F 49 °F (2008)
Degree Days  
Heating Degree Days 0 0  
Month to date heating degree days 0 0  
Since 1 July heating degree days 0 0  
Cooling Degree Days 14 11  
Month to date cooling degree days 376 392  
Year to date cooling degree days 4268 3600  
Growing Degree Days 28 (Base 50)    
Moisture  
Dew Point 74 °F    
Average Humidity 87    
Maximum Humidity 100    
Minimum Humidity 74    
Precipitation  
Precipitation 0.67 in 0.15 in 4.06 in (1962)
Month to date precipitation 6.82 4.87  
Year to date precipitation 42.59 53.94  
Snow  
Snow 0.00 in - - ()
Month to date snowfall 0.0  
Since 1 July snowfall 0.0  
Since 1 September snowfall 0.0  
Snow Depth 0.00 in    
Sea Level Pressure  
Sea Level Pressure 29.84 in    
Wind  
Wind Speed 9 mph (North)    
Max Wind Speed 22 mph    
Max Gust Speed 26 mph    
Visibility 9 miles    
Events Rain , Thunderstorm    
T = Trace of Precipitation, MM = Missing Value Source: NWS Daily Summary

Daily Weather History Graph

Daily Weather History Graph

Search for Another Location

Airport:

Trip Planner

Search our weather history database for the weather conditions in past years. The results will help you decide how hot, cold, wet, or windy it might be!

Date:

Astronomy

Oct. 29, 2011 Rise Set
Actual Time 7:27 AM EDT 6:40 PM EDT
Civil Twilight 7:04 AM EDT 7:03 PM EDT
Nautical Twilight 6:36 AM EDT 7:31 PM EDT
Astronomical Twilight 6:09 AM EDT 7:58 PM EDT
Moon 10:30 AM EDT (10/29) 9:18 PM EDT (10/29)
Length of Visible Light 11h 59m
Length of Day
11h 12m
Waxing Crescent, 11% of the Moon is Illuminated
Oct 29
Waxing Crescent
Nov 2
First Quarter
Nov 10
Full
Nov 18
Last Quarter
Nov 25
New

Hourly Weather History & Observations

Time (EDT) Temp. Heat Index Dew Point Humidity Pressure Visibility Wind Dir Wind Speed Gust Speed Precip Events Conditions
12:53 AM 72.0 °F - 72.0 °F 100% 29.90 in 4.0 mi Calm Calm - 0.38 in Rain , Thunderstorm Thunderstorms and Rain
1:30 AM 73.4 °F - 71.6 °F 94% 29.89 in 10.0 mi East 3.5 mph - 0.13 in Rain Light Rain
1:53 AM 73.0 °F - 73.0 °F 100% 29.88 in 10.0 mi ENE 4.6 mph - 0.15 in Rain Light Rain
2:53 AM 73.0 °F - 72.0 °F 96% 29.83 in 10.0 mi East 4.6 mph - 0.02 in Rain Light Rain
3:53 AM 73.9 °F - 73.0 °F 97% 29.83 in 10.0 mi Calm Calm - 0.00 in   Overcast
4:53 AM 73.9 °F - 73.0 °F 97% 29.82 in 5.0 mi Calm Calm - 0.05 in Rain Light Rain
5:53 AM 75.0 °F - 73.9 °F 96% 29.80 in 10.0 mi ESE 5.8 mph - 0.03 in Rain Light Rain
6:53 AM 75.0 °F - 73.9 °F 96% 29.81 in 10.0 mi SE 4.6 mph - 0.04 in Rain Light Rain
7:53 AM 75.9 °F - 75.0 °F 97% 29.81 in 10.0 mi SE 4.6 mph - 0.06 in   Mostly Cloudy
8:36 AM 75.2 °F - 75.2 °F 100% 29.82 in 10.0 mi South 4.6 mph - 0.00 in   Mostly Cloudy
8:53 AM 77.0 °F - 75.9 °F 96% 29.83 in 10.0 mi SSE 6.9 mph - 0.00 in   Mostly Cloudy
9:53 AM 81.0 °F 87.9 °F 77.0 °F 88% 29.83 in 10.0 mi South 11.5 mph 19.6 mph N/A   Mostly Cloudy
10:53 AM 82.0 °F 90.2 °F 77.0 °F 85% 29.83 in 10.0 mi SSW 12.7 mph 23.0 mph N/A   Mostly Cloudy
11:53 AM 82.9 °F 90.8 °F 75.9 °F 79% 29.83 in 10.0 mi SSW 15.0 mph - N/A   Mostly Cloudy
12:53 PM 84.9 °F 94.1 °F 75.9 °F 74% 29.81 in 10.0 mi SSW 19.6 mph 24.2 mph N/A   Mostly Cloudy
1:53 PM 82.9 °F 91.8 °F 77.0 °F 82% 29.79 in 7.0 mi WSW 10.4 mph - 0.01 in Rain Light Rain
2:02 PM 84.2 °F 94.1 °F 77.0 °F 79% 29.79 in 10.0 mi West 13.8 mph - 0.01 in Rain , Thunderstorm Light Thunderstorms and Rain
2:15 PM 78.8 °F - 75.2 °F 89% 29.79 in 7.0 mi WNW 18.4 mph 26.5 mph 0.01 in Rain , Thunderstorm Light Thunderstorms and Rain
2:53 PM 79.0 °F - 77.0 °F 94% 29.78 in 7.0 mi NW 10.4 mph - 0.26 in Rain , Thunderstorm Light Thunderstorms and Rain
3:53 PM 80.1 °F 85.4 °F 75.9 °F 87% 29.78 in 10.0 mi NNW 15.0 mph - 0.00 in Thunderstorm Thunderstorm
4:28 PM 80.6 °F 86.2 °F 75.2 °F 84% 29.80 in 10.0 mi NNW 15.0 mph 21.9 mph N/A   Mostly Cloudy
4:53 PM 77.0 °F - 73.0 °F 88% 29.80 in 10.0 mi North 11.5 mph 20.7 mph N/A   Mostly Cloudy
5:53 PM 75.9 °F - 71.1 °F 85% 29.83 in 10.0 mi North 17.3 mph 24.2 mph N/A   Mostly Cloudy
6:17 PM 75.2 °F - 71.6 °F 89% 29.84 in 2.0 mi North 13.8 mph - 0.04 in Rain Heavy Rain
6:24 PM 75.2 °F - 71.6 °F 89% 29.84 in 4.0 mi North 11.5 mph 20.7 mph 0.07 in Rain Light Rain
6:53 PM 75.0 °F - 72.0 °F 90% 29.86 in 10.0 mi North 15.0 mph - 0.07 in   Mostly Cloudy
7:53 PM 73.9 °F - 72.0 °F 93% 29.88 in 10.0 mi North 9.2 mph - 0.01 in   Mostly Cloudy
8:12 PM 73.4 °F - 71.6 °F 94% 29.89 in 10.0 mi North 11.5 mph - N/A   Mostly Cloudy
8:53 PM 75.0 °F - 71.1 °F 87% 29.91 in 10.0 mi North 8.1 mph - N/A   Mostly Cloudy
9:53 PM 75.0 °F - 71.1 °F 87% 29.91 in 10.0 mi North 8.1 mph - N/A   Mostly Cloudy
10:53 PM 73.9 °F - 71.1 °F 91% 29.92 in 10.0 mi North 9.2 mph - N/A   Mostly Cloudy
11:53 PM 73.9 °F - 71.1 °F 91% 29.93 in 10.0 mi North 10.4 mph - N/A   Mostly Cloudy